Miscellaneous Local Product
Issued by NWS Hastings, NE

Home | Current Version | Previous Version | Text Only | Print | Product List | Glossary Off
Versions: 1 2 3 4 5 6 7 8 9 10 11 12 13 14 15 16 17 18 19 20 21 22 23 24 25 26 27 28 29 30 31 32 33 34 35 36 37 38 39 40 41 42 43 44 45 46 47 48 49 50

000
AXUS43 KGID 171302
MISGRI

GID CWA HOURLY WEATHER ROUNDUP
NATIONAL WEATHER SERVICE HASTINGS NE
800 AM CDT THU APR 17 2014

NOTE: "FAIR" INDICATES FEW OR NO CLOUDS BELOW 12,000 FEET WITH NO
SIGNIFICANT WEATHER AND/OR OBSTRUCTIONS TO VISIBILITY.

...SOUTH CENTRAL NEBRASKA...

CITY           SKY/WX    TMP DP  RH WIND       PRES   REMARKS
GRAND ISLAND   CLOUDY    32  23  69 N10       30.30R WCI  24
HASTINGS       CLOUDY    31  24  75 NE12      30.28R WCI  22
KEARNEY        CLOUDY    30  25  80 NE10      30.29R WCI  21
ORD            SUNNY     30  22  72 N9        30.27R WCI  22
YORK           CLOUDY    32  25  74 N14G20    30.29R WCI  22
AURORA         CLOUDY    32  26  80 N12       30.28R WCI  23
LEXINGTON      CLOUDY    30  25  81 NE6       30.28R WCI  24
HOLDREGE       CLOUDY    31  25  77 NE9       30.28R WCI  23
HEBRON         CLOUDY    33  25  73 N13       30.28R WCI  24

...NEBRASKA PANHANDLE...

CITY           SKY/WX    TMP DP  RH WIND       PRES   REMARKS
CHADRON        MOCLDY    34  30  85 E3        30.15S
ALLIANCE       CLOUDY    31  28  89 S6        30.16S WCI  25
SCOTTSBLUFF    CLOUDY    33  30  88 SE9       30.15R WCI  25
SIDNEY         FOG       31  30  96 SE13      30.16R VSB 1/4 WCI  21

...WESTERN AND NORTH CENTRAL NEBRASKA...

CITY           SKY/WX    TMP DP  RH WIND       PRES   REMARKS
VALENTINE      PTSUNNY   24  21  88 S3        30.26R
AINSWORTH      SUNNY     25  22  91 CALM      30.27R
ONEILL         SUNNY     25  21  85 N6        30.28R WCI  18
BROKEN BOW     CLOUDY    28  22  78 N13       30.25R WCI  17
IMPERIAL       CLOUDY    30  26  85 NE5       30.22R FOG     WCI  25
NORTH PLATTE   CLOUDY    29  23  78 NE3       30.24R
MCCOOK         CLOUDY    31  25  78 E7        30.28R WCI  24

...EASTERN NEBRASKA...

CITY           SKY/WX    TMP DP  RH WIND       PRES   REMARKS
NORFOLK        MOSUNNY   31  22  69 N10       30.29R WCI  22
SO SIOUX CITY  CLOUDY    31  24  75 NW10      30.30R WCI  22
TEKAMAH        CLOUDY    32  24  72 NW12      30.31R WCI  23
COLUMBUS       CLOUDY    30  19  64 N10       30.31R WCI  21
ALBION         MOSUNNY   30  22  72 N5        30.29R WCI  25
OMAHA EPPLEY   CLOUDY    33  24  69 N17       30.29R WCI  22
OFFUTT AFB     CLOUDY    33  26  76 N7        30.29R WCI  27
MILLARD        CLOUDY    32  24  73 N6        30.28S WCI  26
LINCOLN        CLOUDY    34  24  67 N15       30.31R WCI  24
NEBRASKA CITY  CLOUDY    33  26  78 N16       30.27R WCI  22
BEATRICE       CLOUDY    33  25  72 N16       30.27S WCI  22
FALLS CITY     CLOUDY    35  27  72 NW9       30.28R WCI  28

...NORTHERN KANSAS...

CITY           SKY/WX    TMP DP  RH WIND       PRES   REMARKS
GOODLAND       CLOUDY    30  28  92 E8        30.22R FOG     WCI  22
HILL CITY      CLOUDY    33  25  72 NE10      30.28R WCI  25
PHILLIPSBURG   CLOUDY    34  27  75 N5        30.29R WCI  30
SMITH CENTER   CLOUDY    30  25  80 N10       30.29R WCI  21
BELOIT         CLOUDY    34  27  75 N8        30.30R WCI  27
HAYS           CLOUDY    34  25  69 NE10      30.27R WCI  26
RUSSELL        CLOUDY    34  26  72 N10       30.26R WCI  26
CONCORDIA      CLOUDY    33  26  75 N9        30.30R WCI  25
SALINA         CLOUDY    37  26  64 N14       30.29R WCI  28
TOPEKA         CLOUDY    38  28  67 N12       30.28R WCI  30



USA.gov is the U.S. government's official web portal to all federal, state and local government web resources and services.